User: anonymous
Location: Unspecified
(0.0000°N, 0.0000°E)
Time: 08:25:28
(UTC+00:00)
Language:

Tiangong 1 - Orbit

View from above orbital plane
View from above orbital plane
View from above satellite
View from above satellite

Ground track
Ground track

The orbit data is extracted from the following two-line orbital elements,

1 37820U 11053A   14114.86585023  .00059084  00000-0  49500-3 0  9692
2 37820 042.7726 275.0298 0012259 345.9029 164.4664 15.69008453147659
Epoch (UTC): 24 April 2014 20:46:49
Eccentricity: 0.0012259
inclination: 42.7726°
perigee height: 353 km
apogee height: 370 km
right ascension of ascending node: 275.0298°
argument of perigee: 345.9029°
revolutions per day: 15.69008453
mean anomaly at epoch: 164.4664°
orbit number at epoch: 14765

The dashed part of the orbit path shows where the satellite is in the earth's shadow,  

DLR